{"data":{"norad_id":57381,"epoch":"2026-09-20T02:57:17.671680Z","epoch_age_seconds":156786,"freshness":"FRESH","line1":"1 57381U 23099BF  26263.12312120  .00000203  00000+0  16907-4 0  9999","line2":"2 57381  43.0017 205.6364 0001291 265.0335  95.0369 15.27569385176887","mean_motion":15.27569385,"eccentricity":0.0001291,"inclination_deg":43.0017,"raan_deg":205.6364,"arg_perigee_deg":265.0335,"mean_anomaly_deg":95.0369,"bstar":1.6907e-5,"rev_number":17688,"period_min":94.267403768373,"perigee_km":482.19509812396,"apogee_km":483.96666458092,"semimajor_km":6861.2178813524,"source":"CELESTRAK","updated_at":"2026-09-21T09:00:33.622672Z"}}